[[{"header":{"parameterUnit":"m.s-1","parameterCategory":1,"la1":30.2991,"la2":30.254,"lo1":-89.0895,"lo2":-89.0444,"dy":0.0017,"dx":0.0017,"nx":28,"ny":28,"refTime":"2025-04-19T09:00:00:Z","depth":0,"parameterNumber":2,"parameterNumberName":"U-component_of_WINDS"},"data":[0,0,0,0,0,0,0,0,0,0,0,0,0,0,0,0,0,0,0,0,0,0,0,0,0,0,0,0,0,0,0,0,0,0,0,0,0,0,0,0,0,0,0,0,0,0,0,0,0,0,0,0,0,0,0,0,0,0,-4.4758,-4.4759,0,-4.4848,-4.4849,-4.485,-4.4814,-4.4812,-4.481,-4.4808,-4.49,-4.4904,-4.4909,0,0,0,0,0,0,0,0,0,0,0,0,0,-4.4554,-4.4558,-4.4758,-4.4759,-4.476,-4.4848,-4.4849,-4.4851,-4.4815,-4.4812,-4.481,-4.4807,-4.4899,-4.4904,-4.4909,0,0,0,0,0,0,0,0,0,0,0,0,0,-4.4643,-4.4559,-4.4758,-4.4753,-4.4753,-4.4848,-4.4849,-4.4851,-4.4815,-4.4812,-4.4809,-4.4806,-4.4897,-4.4903,-4.491,-4.5014,0,0,-4.493,-4.4933,0,0,0,0,0,0,0,0,-4.4638,-4.4651,-4.4752,-4.4753,-4.4754,-4.4817,-4.4811,-4.4906,-4.4816,-4.4792,-4.4808,-4.4805,-4.4875,-4.4883,-4.4907,-4.5018,-4.5022,-4.4931,-4.4935,-4.4937,-4.4939,0,0,0,0,0,0,0,-4.4632,-4.4647,-4.4793,-4.4754,-4.4755,-4.4746,-4.4755,-4.4829,-4.485,-4.4794,-4.4791,-4.4803,-4.4875,-4.4901,-4.4909,-4.5024,-4.493,-4.4936,-4.494,-4.4943,-4.5225,-4.5228,0,0,0,0,0,0,-4.4626,-4.4642,-4.4791,-4.4796,-4.4687,-4.4752,-4.4763,-4.48,-4.4849,-4.4854,-4.4805,-4.4801,-4.4891,-4.4901,-4.4912,-4.5036,-4.4937,-4.4944,-4.4947,-4.5221,-4.5226,-4.523,0,0,0,0,0,0,-4.4621,-4.4639,-4.4787,-4.4718,-4.4736,-4.4759,-4.4801,-4.4803,-4.4829,-4.4858,-4.4861,-4.4828,-4.4889,-4.4903,-4.4989,-4.5039,-4.4947,-4.4953,-4.5217,-4.5223,-4.5228,-4.5287,0,0,0,0,0,0,-4.4616,-4.4638,-4.4678,-4.472,-4.474,-4.4863,-4.4805,-4.4807,-4.4841,-4.4836,-4.488,-4.4884,-4.4887,-4.4979,-4.4996,-4.5047,-4.4958,-4.5213,-4.522,-4.5226,-4.528,-4.5293,-4.5305,0,0,0,0,0,-4.4608,-4.4691,-4.468,-4.4698,-4.4791,-4.4866,-4.4877,-4.488,-4.4845,-4.4885,-4.4904,-4.4883,-4.5032,-4.4988,-4.5006,-4.506,-4.521,-4.5218,-4.5225,-4.5275,-4.5291,-4.5304,0,0,0,0,0,0,-4.4653,-4.4696,-4.4684,-4.4783,-4.4821,-4.4859,-4.491,-4.4896,-4.4945,-4.4938,-4.4939,-4.4949,-4.5038,-4.5058,-4.5009,-4.5164,-4.5115,-4.5127,-4.5147,-4.5162,-4.5174,-4.5166,-4.4963,0,0,0,0,0,-4.4675,-4.4733,-4.4767,-4.485,-4.487,-4.4887,-4.492,-4.4918,-4.4958,-4.4973,-4.4998,-4.5037,-4.5092,-4.5129,-4.5181,-4.5284,-4.5293,-4.533,-4.5342,-4.5352,-4.5362,-4.5417,-4.5434,-4.5256,-4.5256,-4.5255,0,0,-4.4719,-4.475,-4.4786,-4.486,-4.4889,-4.4948,-4.49,-4.4965,-4.5009,-4.4983,-4.5066,-4.5086,-4.5129,-4.5224,-4.5267,-4.5243,-4.5413,-4.5362,-4.537,-4.5374,-4.5427,-4.5444,-4.5458,-4.5261,-4.526,-4.5259,0,0,-4.483,-4.486,-4.4932,-4.4963,-4.5008,-4.5019,-4.5037,-4.5078,-4.509,-4.5174,-4.5155,-4.5208,-4.5304,-4.5335,-4.5364,-4.5489,-4.5471,-4.5506,-4.5568,-4.5622,-4.5636,-4.5649,-4.5692,-4.5708,-4.5516,-4.5516,-4.5516,0,-4.488,-4.4968,-4.4971,-4.5037,-4.507,-4.505,-4.5123,-4.5153,-4.5214,-4.5236,-4.521,-4.533,-4.5358,-4.5459,-4.549,-4.5514,-4.5534,-4.55,-4.5634,-4.5647,-4.5658,-4.5699,-4.5716,-4.552,-4.552,-4.5519,-4.5519,0,-4.5026,-4.5088,-4.5141,-4.52,-4.524,-4.5309,-4.5322,-4.5361,-4.5357,-4.5371,-4.5456,-4.549,-4.5548,-4.5573,-4.5569,-4.5674,-4.5658,-4.5633,-4.5584,-4.5679,-4.5718,-4.5734,-4.5525,-4.5524,-4.5523,-4.5522,0,0,-4.5166,-4.5227,-4.5246,-4.5272,-4.5322,-4.537,-4.5439,-4.5497,-4.553,-4.5573,-4.563,-4.5712,-4.569,-4.5722,-4.5722,-4.577,-4.5866,-4.5739,-4.574,-4.576,-4.5982,-4.5999,-4.6018,-4.5855,-4.5859,-4.5861,-4.5978,0,-4.528,-4.54,-4.5405,-4.5515,-4.5572,-4.5555,-4.5615,-4.5652,-4.5667,-4.5718,-4.5735,-4.5793,-4.5759,-4.5778,-4.5825,-4.5844,-4.591,-4.5836,-4.5908,-4.591,-4.5895,-4.6038,-4.6057,-4.6165,-4.5993,-4.5996,-4.5998,0,-4.5428,-4.5475,-4.5591,-4.5633,-4.5657,-4.5711,-4.5764,-4.5813,-4.5855,-4.5863,-4.59,-4.5894,-4.5964,-4.5915,-4.6011,-4.5961,-4.5991,-4.6005,-4.6009,-4.6014,-4.5958,-4.6045,-4.62,-4.6216,-4.6022,-4.602,-4.6018,0,-4.5516,-4.561,-4.5691,-4.5714,-4.5765,-4.5803,-4.5826,-4.5865,-4.59,-4.5947,-4.5969,-4.6025,-4.6054,-4.6097,-4.6106,-4.6069,-4.6202,-4.6154,-4.621,-4.621,-4.6237,-4.6234,-4.6397,-4.626,-4.6259,-4.6259,-4.6259,0,-4.5641,-4.5712,-4.5731,-4.5781,-4.586,-4.5865,-4.5944,-4.5964,-4.5999,-4.6052,-4.6042,-4.6092,-4.6101,-4.6153,-4.6161,-4.6239,-4.6253,-4.6261,-4.6262,-4.6261,-4.626,-4.6279,-4.6271,-4.6263,-4.6262,-4.6262,-4.6261,0,-4.5752,-4.5768,-4.5855,-4.5897,-4.5909,-4.5965,-4.6,-4.6048,-4.6063,-4.6131,-4.6147,-4.617,-4.6231,-4.6245,-4.6317,-4.6323,-4.6415,-4.6409,-4.6401,-4.64,-4.6455,-4.6449,-4.6633,-4.6657,-4.6506,-4.6507,-4.6509,0,-4.583,-4.5884,-4.5932,-4.5967,-4.5992,-4.6049,-4.6084,-4.6092,-4.613,-4.6182,-4.6223,-4.6283,-4.6331,-4.643,-4.6453,-4.6509,-4.6503,-4.6564,-4.6511,-4.6509,-4.6502,-4.6498,-4.6503,-4.6573,-4.6575,-4.6576,-4.6577,0,-4.5966,-4.5971,-4.6023,-4.6078,-4.6121,-4.6164,-4.6206,-4.6235,-4.6249,-4.6292,-4.6354,-4.6392,-4.6466,-4.6526,-4.6582,-4.6605,-4.6594,-4.6594,-4.661,-4.6608,-4.6601,-4.6604,-4.6426,-4.6589,-4.6588,-4.6587,-4.6587,-4.6586,-4.6062,-4.6109,-4.615,-4.6208,-4.624,-4.628,-4.6326,-4.6348,-4.64,-4.6461,-4.6463,-4.6531,-4.6572,-4.6646,-4.6673,-4.6726,-4.6707,-4.673,-4.6736,-4.6741,-4.6745,-4.6594,-4.6737,-4.6736,-4.6736,-4.6736,-4.6736,0,-4.6196,-4.6222,-4.6275,-4.6334,-4.638,-4.6366,-4.6411,-4.645,-4.651,-4.655,-4.6598,-4.667,-4.6728,-4.6756,-4.6814,-4.6851,-4.6847,-4.6866,-4.6862,-4.6867,-4.676,-4.6739,-4.6868,-4.6868,-4.6868,-4.6868,-4.6868,-4.6868,-4.6271,-4.635,-4.636,-4.6455,-4.6481,-4.6547,-4.6574,-4.6611,-4.6642,-4.6723,-4.6771,-4.6789,-4.6825,-4.6885,-4.6937,-4.6944,-4.6965,-4.6986,-4.699,-4.6888,-4.6875,-4.6862,-4.6843,-4.6991,-4.6991,-4.7093,-4.7094,-4.7095]},{"header":{"parameterUnit":"m.s-1","parameterCategory":1,"la1":30.2991,"la2":30.254,"lo1":-89.0895,"lo2":-89.0444,"dy":0.0017,"dx":0.0017,"nx":28,"ny":28,"refTime":"2025-04-19T09:00:00:Z","depth":0,"parameterNumber":3,"parameterNumberName":"V-component_of_WINDS"},"data":[0,0,0,0,0,0,0,0,0,0,0,0,0,0,0,0,0,0,0,0,0,0,0,0,0,0,0,0,0,0,0,0,0,0,0,0,0,0,0,0,0,0,0,0,0,0,0,0,0,0,0,0,0,0,0,0,0,0,4.249,4.2491,0,4.2522,4.2522,4.2523,4.2485,4.2483,4.2482,4.2481,4.2511,4.2514,4.2516,0,0,0,0,0,0,0,0,0,0,0,0,0,4.2396,4.2398,4.249,4.2491,4.2491,4.2522,4.2522,4.2523,4.2485,4.2483,4.2482,4.248,4.2511,4.2513,4.2516,0,0,0,0,0,0,0,0,0,0,0,0,0,4.2433,4.2399,4.249,4.2476,4.2475,4.2522,4.2523,4.2523,4.2485,4.2483,4.2481,4.2479,4.251,4.2513,4.2516,4.2578,0,0,4.2526,4.2527,0,0,0,0,0,0,0,0,4.2431,4.2437,4.2478,4.2477,4.2476,4.2497,4.25,4.2541,4.2486,4.2481,4.2481,4.2478,4.2508,4.2512,4.2522,4.258,4.2581,4.2526,4.2528,4.253,4.253,0,0,0,0,0,0,0,4.2429,4.2435,4.2503,4.2478,4.2477,4.2468,4.2471,4.2508,4.2506,4.2482,4.2479,4.2483,4.2507,4.2519,4.2523,4.2581,4.2526,4.2529,4.2531,4.2532,4.2693,4.2695,0,0,0,0,0,0,4.2428,4.2433,4.2502,4.2504,4.2448,4.2471,4.2474,4.2493,4.2506,4.2506,4.2485,4.2481,4.2515,4.2519,4.2523,4.2598,4.2529,4.2532,4.2534,4.269,4.2693,4.2696,0,0,0,0,0,0,4.2426,4.2434,4.25,4.2468,4.2476,4.2475,4.2496,4.2494,4.2506,4.2508,4.2508,4.2497,4.2513,4.2519,4.2565,4.2598,4.2534,4.2537,4.2688,4.2691,4.2694,4.2747,0,0,0,0,0,0,4.2423,4.2434,4.2458,4.2469,4.2477,4.2542,4.2498,4.2497,4.2512,4.2507,4.252,4.252,4.2512,4.2561,4.2568,4.2602,4.2539,4.2685,4.2689,4.2693,4.2742,4.2751,4.276,0,0,0,0,0,4.242,4.247,4.2459,4.2467,4.2507,4.2544,4.2549,4.254,4.2515,4.2538,4.254,4.2519,4.2594,4.2566,4.2574,4.2609,4.2682,4.2688,4.2693,4.2738,4.275,4.2759,0,0,0,0,0,0,4.2462,4.2471,4.2459,4.2514,4.2529,4.2538,4.2567,4.2552,4.2573,4.2568,4.2555,4.2558,4.2608,4.2613,4.2582,4.267,4.2634,4.2641,4.2665,4.2676,4.2685,4.2683,4.2542,0,0,0,0,0,4.2478,4.2508,4.2514,4.2562,4.257,4.2568,4.2583,4.2575,4.2589,4.2595,4.26,4.2615,4.2641,4.2659,4.2683,4.2742,4.2745,4.277,4.2779,4.2787,4.2793,4.2826,4.2837,4.2713,4.2713,4.2713,0,0,4.251,4.2519,4.2538,4.2571,4.2581,4.2612,4.2573,4.2607,4.263,4.26,4.2645,4.2649,4.2664,4.2718,4.2741,4.2723,4.2828,4.2793,4.2799,4.2802,4.2832,4.2844,4.2855,4.2717,4.2716,4.2715,0,0,4.2586,4.2595,4.2637,4.2649,4.2665,4.2663,4.2674,4.2685,4.2687,4.2732,4.2711,4.2737,4.2783,4.2795,4.2808,4.2889,4.2871,4.2898,4.2944,4.2976,4.2986,4.2994,4.3024,4.3035,4.2904,4.2904,4.2904,0,4.2624,4.267,4.266,4.2697,4.2712,4.2687,4.2729,4.2741,4.2764,4.2775,4.2755,4.2813,4.2821,4.2878,4.2898,4.2908,4.292,4.2896,4.2985,4.2994,4.3002,4.303,4.3041,4.2907,4.2907,4.2907,4.2906,0,4.2717,4.275,4.2781,4.2806,4.2825,4.2864,4.286,4.288,4.287,4.287,4.2917,4.2926,4.2953,4.2965,4.2956,4.3021,4.3009,4.2987,4.2951,4.3017,4.3044,4.3054,4.2912,4.2911,4.291,4.2909,0,0,4.2819,4.2839,4.2851,4.2862,4.2879,4.2904,4.2942,4.2969,4.2987,4.3004,4.3037,4.3077,4.3057,4.3071,4.3062,4.3091,4.3156,4.3065,4.3065,4.3082,4.323,4.3246,4.3259,4.3144,4.3146,4.3148,4.3229,0,4.2895,4.2963,4.2955,4.3019,4.305,4.3027,4.3061,4.3075,4.3077,4.3103,4.3104,4.3133,4.3105,4.3113,4.314,4.3143,4.3186,4.3136,4.3174,4.3176,4.3172,4.3273,4.329,4.3366,4.3239,4.324,4.3242,0,4.2993,4.3016,4.3083,4.3097,4.311,4.314,4.3165,4.319,4.3206,4.3205,4.3221,4.3208,4.3247,4.321,4.3263,4.323,4.3245,4.3248,4.3251,4.3254,4.3213,4.3279,4.339,4.3401,4.3258,4.3256,4.3255,0,4.3062,4.3109,4.3156,4.3166,4.3183,4.3205,4.3213,4.3227,4.3244,4.3266,4.3277,4.3302,4.3316,4.3336,4.333,4.3304,4.3385,4.3347,4.3386,4.3386,4.3404,4.3403,4.3519,4.3413,4.3413,4.3413,4.3413,0,4.3149,4.3191,4.3187,4.3216,4.3263,4.3254,4.3301,4.3306,4.3319,4.3348,4.333,4.3357,4.3348,4.3375,4.3371,4.3416,4.3423,4.3423,4.3422,4.3425,4.3425,4.3435,4.343,4.3416,4.3415,4.3414,4.3414,0,4.3234,4.3233,4.3282,4.3295,4.3299,4.3333,4.3344,4.3371,4.3372,4.3409,4.3418,4.3419,4.345,4.3446,4.3481,4.3478,4.3535,4.3526,4.353,4.3528,4.3567,4.3564,4.3694,4.3711,4.3594,4.3595,4.3596,0,4.3289,4.3322,4.3338,4.3357,4.3367,4.3397,4.3415,4.3408,4.3427,4.3448,4.3473,4.3503,4.3527,4.3578,4.3582,4.3608,4.3601,4.3645,4.3605,4.3608,4.3602,4.3601,4.3604,4.3653,4.3654,4.3655,4.3656,0,4.3389,4.3387,4.3413,4.3441,4.3463,4.3483,4.3502,4.3518,4.3513,4.3535,4.3568,4.3586,4.3623,4.3653,4.3678,4.3686,4.3671,4.3668,4.3679,4.3683,4.3684,4.3685,4.3552,4.3665,4.3665,4.3664,4.3663,4.3663,4.3461,4.3489,4.3506,4.3537,4.355,4.3568,4.3595,4.36,4.3627,4.3656,4.365,4.3687,4.3703,4.3736,4.3746,4.3775,4.3759,4.3774,4.3778,4.3782,4.3787,4.3679,4.3779,4.3779,4.3779,4.3778,4.3778,0,4.356,4.357,4.3598,4.3626,4.365,4.3634,4.3654,4.3676,4.3709,4.3725,4.3749,4.3787,4.3816,4.3823,4.3851,4.3872,4.3866,4.388,4.3879,4.3881,4.3799,4.3787,4.3885,4.3885,4.3885,4.3885,4.3885,4.3885,4.3615,4.3662,4.3662,4.3716,4.3725,4.3762,4.3775,4.3792,4.3805,4.3849,4.3874,4.3878,4.389,4.3919,4.3946,4.3947,4.3958,4.3976,4.3974,4.3897,4.3887,4.3876,4.3866,4.3978,4.3978,4.4054,4.4054,4.4055]}]]